Погода в Мюрего

Россия / Республика Дагестан     42°24′30″N   47°41′23″E
темп.,
°C
ветер,
м/с
пор.,
м/с
влажн.,
%
обл.,
%
осадки,
мм/ч
давл.,
гПа
погр.,
м
15 мая, сб
сб1500:00+18ююз224820 0.0 101316
03:00+18ююз33430 0.0 101324
06:00+20ююз33500 0.0 101329
09:00+25юв47390 0.0 1014587
12:00+25вюв68370 0.0 1014722
15:00+24юв58360 0.0 1013521
18:00+21ююв45500 0.0 101369
21:00+19юз333918 0.0 101414
16 мая, вс
вс1600:00+17юз22466 0.0 101313
03:00+17ююз33555 0.0 101215
06:00+20ю34590 0.0 101261
09:00+24юв69340 0.0 1011728
12:00+26юв810310 0.0 1010933
15:00+24юв814340 0.0 1009698
18:00+20юв46510 0.0 1008127
21:00+18ю33490 0.0 100926
17 мая, пн
пн1700:00+18ю33490 0.0 100817
03:00+17ю334312 0.0 100720
06:00+19ю224858 0.0 100835
09:00+23в334310 0.0 1007287
12:00+24вюв444334 0.0 1007467
15:00+23в324916 0.0 1006289
18:00+20вюв11650 0.0 100644
21:00+18ююз11644 0.0 100612
18 мая, вт
вт1800:00+19сз454890 0.0 100750
03:00+17ссз2256100 0.0 100731
06:00+19сз125938 0.0 100970
09:00+22ссв24645 0.0 1009547
12:00+24с885745 0.0 10101172
15:00+19сз5979100 3.3 1011613
18:00+18юз2282100 2.9 101334
21:00+18зюз2275100 3.0 101414
19 мая, ср
ср1900:00+17зюз2274100 0.1 101414
03:00+17з337653 1.0 101521
06:00+18з22725 0.1 101785
09:00+22ссв33614 0.1 1017842
12:00+23св445516 0.1 1017938
15:00+23всв32540 0.1 1017733
18:00+21вюв22645 0.0 1017122
21:00+18ююз226941 0.0 101715